#timestamp,LO_Frequency,Hit,StdDev 
1669021215.6,286047002.4,N
1669021235.5,286047001.9,N
1669021255.3,286047001.4,N
1669021275.1,286047001.4,N
1669021295.9,286047003.0,N
1669021315.7,286047005.5,N
1669021335.6,286047005.8,N
1669021355.4,286047003.5,N
1669021375.2,286047001.6,N
1669021395.1,286047003.6,N
1669021396.0,286047003.6,N
1669021415.8,286047003.8,N
1669021435.7,286047003.7,N
1669021455.5,286047004.3,N
1669021475.3,286047001.6,N
1669021495.2,286047001.5,N
1669021515.9,286047003.2,N
1669021535.7,286047007.1,Y
1669021555.6,286047002.9,P
1669021575.4,286047003.8,P
1669021595.3,286047002.9,P
1669021615.1,286047002.0,Y
1669021616.0,286047002.0,P
1669021635.8,286046999.9,N
1669021655.7,286046999.9,N
1669021675.5,286047000.5,N
1669021695.3,286046998.2,N
1669021715.2,286046999.2,N
1669021735.0,286046998.9,N
1669021735.9,286046998.9,N
1669021755.8,286046998.9,N
1669021775.6,286046998.9,N
1669021795.4,286046998.3,N
1669021815.3,286046998.7,N
1669021835.1,286046999.4,N
1669021855.8,286046998.2,N
1669021875.7,286046998.1,N
1669021895.5,286046998.1,N
1669021915.4,286046998.7,N
1669021935.2,286046998.3,N
1669021955.0,286046998.4,N
1669021955.9,286046998.4,N
1669021975.8,286046999.4,N
1669021995.6,286046997.6,N
1669022015.4,286046996.7,N
1669022035.3,286046999.2,N
1669022055.1,286046998.5,N
1669022075.9,286046998.5,N
1669022095.7,286046998.5,N
1669022115.5,286047001.0,N
1669022135.4,286046999.5,N
1669022155.2,286046998.1,N
1669022175.0,286046998.1,N
1669022175.9,286046998.1,N
1669022195.8,286047000.9,N
1669022215.6,286047002.4,N
1669022235.5,286047002.1,N
1669022255.3,286047004.3,Y
1669022275.1,286047005.9,P
1669022295.9,286047002.9,N
1669022315.7,286047002.0,N
1669022335.6,286047002.1,N
1669022355.4,286046999.9,N
1669022375.2,286047001.1,N
1669022395.1,286046998.5,N
1669022396.0,286046998.5,N
1669022415.8,286046999.4,N
1669022435.6,286046996.7,N
1669022455.5,286046997.1,N
1669022475.3,286046997.0,N
1669022495.1,286046997.3,N
1669022515.9,286046999.1,N
1669022535.7,286046998.5,N
1669022555.6,286047000.6,N
1669022575.4,286047000.0,N
1669022595.2,286047000.4,N
1669022615.1,286046998.3,N
1669022616.0,286046998.3,N
1669022635.8,286046996.9,N
1669022655.6,286046997.2,N
1669022675.5,286046996.5,N
1669022695.3,286047000.8,N
1669022715.2,286046999.8,N
1669022735.9,286047001.0,N
1669022755.7,286047000.4,N
1669022775.6,286047000.7,N
1669022795.4,286047000.4,N
1669022815.2,286047003.9,N
1669022835.1,286047002.3,N
1669022836.0,286047002.3,N
1669022855.8,286047000.1,N
1669022875.7,286046999.7,N
1669022895.5,286047001.9,N
1669022915.3,286047001.3,N
1669022935.2,286047003.2,N
1669022955.0,286047003.2,N
1669022955.9,286047003.2,N
1669022975.7,286047001.7,N
1669022995.6,286047002.0,N
1669023015.4,286047002.1,N
1669023035.3,286047002.6,N
1669023055.1,286047002.4,N
1669023056.0,286047002.4,N
1669023075.8,286047003.7,N
1669023095.7,286047003.0,N
1669023115.5,286047004.0,N
1669023135.3,286047001.7,N
1669023155.2,286047001.5,N
1669023175.0,286047001.5,N
1669023175.9,286047001.5,N
1669023195.8,286047001.7,N
1669023215.6,286047003.7,Y
1669023235.4,286047000.3,P
1669023255.3,286047001.0,N
1669023275.1,286047002.5,P
1669023295.8,286047000.2,N
1669023315.7,286047000.3,N
1669023335.5,286047002.4,N
1669023355.4,286046999.8,N
1669023375.2,286047000.5,N
1669023395.0,286047000.6,N
1669023395.9,286047000.6,N
1669023415.8,286047000.2,N
1669023435.6,286047002.6,N
1669023455.4,286047001.6,N
1669023475.3,286047001.9,N
1669023495.1,286047002.2,N
1669023545.9,286047002.8,E
1669023555.8,286047000.8,N
1669023575.6,286046996.8,P
1669023595.5,286047001.2,N
1669023615.3,286046999.2,N
1669023635.2,286047001.2,N
1669023655.9,286046998.5,N
1669023675.7,286047001.2,N
1669023695.6,286046999.1,N
1669023715.4,286046998.3,N
1669023735.2,286047000.9,N
1669023755.1,286047001.2,N
1669023756.0,286047001.2,N
1669023775.8,286046996.8,N
1669023795.7,286046997.7,N
1669023815.5,286046996.9,N
1669023835.3,286046998.7,N
1669023855.2,286047000.0,N
1669023875.0,286047001.9,N
1669023875.9,286047001.9,N
1669023895.8,286047000.7,N
1669023915.6,286047001.0,N
1669023935.4,286047000.7,N
1669023955.3,286047000.8,N
1669023975.1,286047001.2,N
1669023995.8,286046998.5,N
1669024015.7,286046999.0,N
1669024035.5,286046999.5,N
1669024055.4,286046999.5,N
1669024075.2,286046996.9,N
1669024095.0,286046997.8,N
1669024095.9,286046997.8,N
1669024115.8,286046999.2,N
1669024135.6,286046998.3,N
1669024155.4,286046998.1,N
1669024175.3,286047001.2,N
1669024195.1,286047000.7,N
1669024215.9,286047000.6,N
1669024235.7,286047000.2,N
1669024255.5,286047003.7,N
1669024275.4,286047001.6,N
1669024295.2,286046999.4,N
1669024315.1,286046995.9,N
1669024316.0,286046995.9,N
1669024335.8,286046995.7,N
1669024355.6,286046995.3,N
1669024375.5,286046994.0,N
1669024395.3,286046991.8,Y
1669024415.1,286046994.3,P
1669024435.9,286046993.7,N
1669024455.7,286046995.8,N
1669024475.6,286046995.1,N
1669024495.4,286046997.9,N
1669024515.2,286046998.4,N
1669024535.1,286046998.6,N
1669024536.0,286046998.6,N
1669024555.8,286046998.3,N
1669024575.6,286046999.3,N
1669024595.5,286046996.5,N
1669024615.3,286046997.4,N
1669024635.2,286046997.5,N
1669024655.9,286046997.3,N
1669024675.7,286046997.7,N
1669024695.6,286046995.9,N
1669024715.4,286046995.7,N
1669024735.2,286046997.1,N
1669024755.1,286046997.3,N
1669024756.0,286046997.3,N
1669024775.8,286046999.1,N
1669024795.7,286047000.9,N
